Regional Weather Roundup
Issued by NWS

Home | Current Version | Previous Version | Text Only | Print | Product List | Glossary Off
Versions: 1 2 3 4 5 6 7 8 9 10 11 12 13 14 15 16 17 18 19 20 21 22 23 24 25 26 27 28 29 30 31 32 33 34 35 36 37 38 39 40 41 42 43 44 45 46 47 48 49 50

000
ASUS43 KFSD 131802
RWRSD

WEATHER ROUNDUP FOR SOUTH DAKOTA
NATIONAL WEATHER SERVICE SIOUX FALLS SD
100 PM CDT SUN JUL 13 2014

NOTE: "FAIR" INDICATES FEW OR NO CLOUDS BELOW 12,000 FEET WITH NO
SIGNIFICANT WEATHER AND/OR OBSTRUCTIONS TO VISIBILITY.


SDZ001>005-009-010-012>017-131900-
NORTHWEST AND NORTH CENTRAL SOUTH DAKOTA

CITY           SKY/WX    TMP DP  RH WIND       PRES   REMARKS
BUFFALO          N/A     77  53  43 NW14      30.11F
FAITH            N/A     79  55  43 NW16G23   30.13F
MOBRIDGE       SUNNY     73  54  51 NW12      30.07F
$$

SDZ012>016-024>037-041>051-057-063-072>074-131900-
SOUTHWEST AND SOUTH CENTRAL SOUTH DAKOTA

CITY           SKY/WX    TMP DP  RH WIND       PRES   REMARKS
RAPID CTY ARPT SUNNY     81  48  31 N9        30.18F
PIERRE         SUNNY     79  60  52 NW16      30.07F
CUSTER         MOSUNNY   76  48  37 W8        30.31F
ELLSWORTH AFB  SUNNY     82  47  30 N13       30.18F
PHILIP         SUNNY     84  48  28 W15G23    30.11F
PINE RIDGE     SUNNY     81  56  42 N6        30.19F
WINNER         FAIR      85  52  32 W10G18    30.09F
$$

SDZ004>011-016>023-039-040-131900-
NORTHEAST SOUTH DAKOTA

CITY           SKY/WX    TMP DP  RH WIND       PRES   REMARKS
ABERDEEN       SUNNY     75  51  43 NW16      30.03F
WATERTOWN      SUNNY     74  53  48 NW10G20   30.03F
SISSETON         N/A     74  46  36 NW16G26   29.99F
$$

SDZ017-020-022-023-036>040-048>070-131900-
SOUTHEAST SOUTH DAKOTA

CITY           SKY/WX    TMP DP  RH WIND       PRES   REMARKS
SIOUX FALLS    MOSUNNY   80  60  50 NW15      30.03F
HURON          SUNNY     79  58  48 NW8       30.03F
CHAMBERLAIN    SUNNY     82  54  37 NW17G23   30.06F
MITCHELL       SUNNY     81  63  54 N9        30.04F
YANKTON        SUNNY     81  63  54 NW6       30.05F
$$

ABBREVIATIONS USED IN REMARKS
   TC - TEMPERATURE IN CELSIUS
  WCI - WIND CHILL INDEX
   HX - HEAT INDEX
  VSB - VISIBILITY




USA.gov is the U.S. government's official web portal to all federal, state and local government web resources and services.